Time,TemperatureF,DewpointF,PressureIn,WindDirection,WindDirectionDegrees,WindSpeedMPH,WindSpeedGustMPH,Humidity,HourlyPrecipIn,Conditions,Clouds,dailyrainin,SoftwareType,DateUTC
2013-06-09 00:10:00,69.9,60.0,29.97,NE,34,0.0,0.0,71,0.00,,,0.00,weatherlink.com 1.10,2013-06-09 04:10:00,
2013-06-09 00:25:00,69.9,60.0,29.97,NE,34,0.0,0.0,72,0.00,,,0.00,weatherlink.com 1.10,2013-06-09 04:25:00,
2013-06-09 00:40:00,69.8,60.0,29.97,NE,34,0.0,0.0,72,0.00,,,0.00,weatherlink.com 1.10,2013-06-09 04:40:00,
2013-06-09 00:55:00,70.5,61.0,29.98,SW,221,0.0,3.0,73,0.00,,,0.00,weatherlink.com 1.10,2013-06-09 04:55:00,
2013-06-09 01:10:00,70.1,61.0,29.98,WNW,294,0.0,1.0,74,0.00,,,0.00,weatherlink.com 1.10,2013-06-09 05:10:00,
2013-06-09 01:25:00,69.4,62.0,29.98,WNW,295,0.0,0.0,76,0.00,,,0.00,weatherlink.com 1.10,2013-06-09 05:25:00,
2013-06-09 01:40:00,69.2,61.0,29.98,NNW,328,0.0,0.0,74,0.00,,,0.00,weatherlink.com 1.10,2013-06-09 05:40:00,
2013-06-09 01:55:00,68.6,60.0,29.99,NNW,328,0.0,0.0,75,0.00,,,0.00,weatherlink.com 1.10,2013-06-09 05:55:00,
2013-06-09 02:10:00,68.4,61.0,29.98,NNE,18,0.0,0.0,77,0.00,,,0.00,weatherlink.com 1.10,2013-06-09 06:10:00,
2013-06-09 02:25:00,68.3,61.0,29.99,East,98,0.0,0.0,78,0.00,,,0.00,weatherlink.com 1.10,2013-06-09 06:25:00,
2013-06-09 02:40:00,68.0,61.0,29.99,ESE,115,0.0,0.0,78,0.00,,,0.00,weatherlink.com 1.10,2013-06-09 06:40:00,
2013-06-09 02:55:00,67.7,60.0,29.99,ESE,119,0.0,0.0,77,0.00,,,0.00,weatherlink.com 1.10,2013-06-09 06:55:00,
2013-06-09 03:10:00,67.9,59.0,29.99,SE,131,0.0,2.0,74,0.00,,,0.00,weatherlink.com 1.10,2013-06-09 07:10:00,
2013-06-09 03:25:00,67.9,59.0,29.99,SE,142,0.0,2.0,74,0.00,,,0.00,weatherlink.com 1.10,2013-06-09 07:25:00,
2013-06-09 03:40:00,67.6,59.0,29.99,NNE,20,0.0,4.0,75,0.00,,,0.00,weatherlink.com 1.10,2013-06-09 07:40:00,
2013-06-09 03:56:00,67.2,59.0,30.00,ESE,114,0.0,1.0,76,0.00,,,0.00,weatherlink.com 1.10,2013-06-09 07:56:00,
2013-06-09 04:11:00,66.7,59.0,30.00,ENE,58,0.0,2.0,77,0.00,,,0.00,weatherlink.com 1.10,2013-06-09 08:11:00,
2013-06-09 04:26:00,66.1,59.0,30.00,ENE,71,0.0,2.0,79,0.00,,,0.00,weatherlink.com 1.10,2013-06-09 08:26:00,
2013-06-09 04:41:00,65.6,59.0,30.01,ENE,74,0.0,0.0,80,0.00,,,0.00,weatherlink.com 1.10,2013-06-09 08:41:00,
2013-06-09 04:56:00,65.4,59.0,30.02,SSE,163,0.0,1.0,80,0.00,,,0.00,weatherlink.com 1.10,2013-06-09 08:56:00,
2013-06-09 05:11:00,65.2,59.0,30.03,ESE,121,0.0,1.0,81,0.00,,,0.00,weatherlink.com 1.10,2013-06-09 09:11:00,
2013-06-09 05:26:00,65.0,59.0,30.03,SE,136,0.0,0.0,81,0.00,,,0.00,weatherlink.com 1.10,2013-06-09 09:26:00,
2013-06-09 05:56:00,64.7,59.0,30.05,SE,136,0.0,0.0,82,0.00,,,0.00,weatherlink.com 1.10,2013-06-09 09:56:00,
2013-06-09 06:11:00,65.3,59.0,30.05,SE,135,0.0,1.0,80,0.00,,,0.00,weatherlink.com 1.10,2013-06-09 10:11:00,
2013-06-09 06:26:00,65.7,59.0,30.07,SE,134,0.0,1.0,80,0.00,,,0.00,weatherlink.com 1.10,2013-06-09 10:26:00,
2013-06-09 06:41:00,66.2,60.0,30.06,North,9,0.0,2.0,79,0.00,,,0.00,weatherlink.com 1.10,2013-06-09 10:41:00,
2013-06-09 06:56:00,66.5,59.0,30.06,NNE,18,0.0,1.0,77,0.00,,,0.00,weatherlink.com 1.10,2013-06-09 10:56:00,
2013-06-09 07:11:00,66.9,59.0,30.06,SSE,151,0.0,3.0,77,0.00,,,0.00,weatherlink.com 1.10,2013-06-09 11:11:00,
2013-06-09 07:26:00,69.0,60.0,30.07,NNW,339,0.0,1.0,72,0.00,,,0.00,weatherlink.com 1.10,2013-06-09 11:26:00,
2013-06-09 07:41:00,69.0,58.0,30.07,South,172,1.0,1.0,68,0.00,,,0.00,weatherlink.com 1.10,2013-06-09 11:41:00,
2013-06-09 07:56:00,69.4,57.0,30.07,North,349,0.0,2.0,65,0.00,,,0.00,weatherlink.com 1.10,2013-06-09 11:56:00,
2013-06-09 08:11:00,70.1,58.0,30.07,NNE,13,0.0,3.0,65,0.00,,,0.00,weatherlink.com 1.10,2013-06-09 12:11:00,
2013-06-09 08:26:00,70.2,55.0,30.08,ENE,72,1.0,4.0,59,0.00,,,0.00,weatherlink.com 1.10,2013-06-09 12:26:00,
2013-06-09 08:41:00,71.0,55.0,30.09,NNW,345,2.0,5.0,57,0.00,,,0.00,weatherlink.com 1.10,2013-06-09 12:41:00,
2013-06-09 08:56:00,72.5,55.0,30.08,NNW,328,0.0,3.0,55,0.00,,,0.00,weatherlink.com 1.10,2013-06-09 12:56:00,
2013-06-09 09:26:00,74.5,54.0,30.09,East,98,0.0,4.0,49,0.00,,,0.00,weatherlink.com 1.10,2013-06-09 13:26:00,
2013-06-09 09:41:00,76.0,55.0,30.09,ESE,123,1.0,2.0,48,0.00,,,0.00,weatherlink.com 1.10,2013-06-09 13:41:00,
2013-06-09 09:57:00,76.5,55.0,30.08,ESE,115,0.0,4.0,47,0.00,,,0.00,weatherlink.com 1.10,2013-06-09 13:57:00,
2013-06-09 10:12:00,77.2,54.0,30.08,WNW,300,1.0,4.0,45,0.00,,,0.00,weatherlink.com 1.10,2013-06-09 14:12:00,
2013-06-09 10:26:00,80.6,56.0,30.08,NNW,329,2.0,4.0,43,0.00,,,0.00,weatherlink.com 1.10,2013-06-09 14:26:00,
2013-06-09 10:42:00,82.0,55.0,30.08,SSE,150,3.0,4.0,40,0.00,,,0.00,weatherlink.com 1.10,2013-06-09 14:42:00,
2013-06-09 10:57:00,84.7,55.0,30.08,SSE,156,2.0,5.0,36,0.00,,,0.00,weatherlink.com 1.10,2013-06-09 14:57:00,
2013-06-09 11:12:00,85.2,55.0,30.07,NNW,338,0.0,6.0,35,0.00,,,0.00,weatherlink.com 1.10,2013-06-09 15:12:00,
2013-06-09 11:27:00,79.4,54.0,30.07,SSE,162,3.0,4.0,42,0.00,,,0.00,weatherlink.com 1.10,2013-06-09 15:27:00,
2013-06-09 11:42:00,83.3,54.0,30.08,NNW,330,4.0,5.0,36,0.00,,,0.00,weatherlink.com 1.10,2013-06-09 15:42:00,
2013-06-09 11:57:00,80.5,54.0,30.07,NW,304,1.0,5.0,40,0.00,,,0.00,weatherlink.com 1.10,2013-06-09 15:57:00,
2013-06-09 12:12:00,85.9,55.0,30.07,SE,136,4.0,6.0,35,0.00,,,0.00,weatherlink.com 1.10,2013-06-09 16:12:00,
2013-06-09 12:27:00,81.2,55.0,30.07,NW,304,1.0,6.0,41,0.00,,,0.00,weatherlink.com 1.10,2013-06-09 16:27:00,
2013-06-09 12:42:00,86.5,57.0,30.07,SSE,162,2.0,6.0,36,0.00,,,0.00,weatherlink.com 1.10,2013-06-09 16:42:00,
2013-06-09 12:57:00,84.0,56.0,30.07,SE,143,3.0,6.0,38,0.00,,,0.00,weatherlink.com 1.10,2013-06-09 16:57:00,
2013-06-09 13:12:00,82.1,55.0,30.07,ESE,103,1.0,8.0,40,0.00,,,0.00,weatherlink.com 1.10,2013-06-09 17:12:00,
2013-06-09 13:27:00,87.7,55.0,30.06,South,171,4.0,10.0,33,0.00,,,0.00,weatherlink.com 1.10,2013-06-09 17:27:00,
2013-06-09 13:42:00,82.1,55.0,30.06,SSE,159,5.0,11.0,40,0.00,,,0.00,weatherlink.com 1.10,2013-06-09 17:42:00,
2013-06-09 13:57:00,87.8,56.0,30.06,ESE,118,3.0,5.0,34,0.00,,,0.00,weatherlink.com 1.10,2013-06-09 17:57:00,
2013-06-09 14:12:00,83.1,56.0,30.05,SSW,193,3.0,9.0,39,0.00,,,0.00,weatherlink.com 1.10,2013-06-09 18:12:00,
2013-06-09 14:27:00,81.0,55.0,30.05,SSE,162,6.0,10.0,41,0.00,,,0.00,weatherlink.com 1.10,2013-06-09 18:27:00,
2013-06-09 14:42:00,87.3,56.0,30.05,South,188,6.0,9.0,34,0.00,,,0.00,weatherlink.com 1.10,2013-06-09 18:42:00,
2013-06-09 14:57:00,82.3,56.0,30.05,SE,141,7.0,8.0,41,0.00,,,0.00,weatherlink.com 1.10,2013-06-09 18:57:00,
2013-06-09 15:12:00,86.3,57.0,30.04,South,191,3.0,11.0,37,0.00,,,0.00,weatherlink.com 1.10,2013-06-09 19:12:00,
2013-06-09 15:27:00,83.5,56.0,30.04,South,176,3.0,9.0,39,0.00,,,0.00,weatherlink.com 1.10,2013-06-09 19:27:00,
2013-06-09 15:42:00,83.3,56.0,30.04,SSE,165,2.0,9.0,39,0.00,,,0.00,weatherlink.com 1.10,2013-06-09 19:42:00,
2013-06-09 15:57:00,89.5,56.0,30.03,SE,127,2.0,7.0,32,0.00,,,0.00,weatherlink.com 1.10,2013-06-09 19:57:00,
2013-06-09 16:12:00,84.3,56.0,30.03,WSW,252,4.0,9.0,38,0.00,,,0.00,weatherlink.com 1.10,2013-06-09 20:12:00,
2013-06-09 16:27:00,88.3,58.0,30.02,SE,134,6.0,9.0,36,0.00,,,0.00,weatherlink.com 1.10,2013-06-09 20:27:00,
2013-06-09 16:42:00,84.3,57.0,30.03,WSW,252,2.0,8.0,39,0.00,,,0.00,weatherlink.com 1.10,2013-06-09 20:42:00,
2013-06-09 16:57:00,83.5,57.0,30.02,SE,135,2.0,7.0,40,0.00,,,0.00,weatherlink.com 1.10,2013-06-09 20:57:00,
2013-06-09 17:12:00,88.3,58.0,30.02,SE,136,1.0,7.0,36,0.00,,,0.00,weatherlink.com 1.10,2013-06-09 21:12:00,
2013-06-09 17:27:00,84.0,58.0,30.03,SSE,155,1.0,3.0,42,0.00,,,0.00,weatherlink.com 1.10,2013-06-09 21:27:00,
2013-06-09 17:42:00,83.1,60.0,30.03,SSE,157,0.0,5.0,45,0.00,,,0.00,weatherlink.com 1.10,2013-06-09 21:42:00,
2013-06-09 17:57:00,81.3,58.0,30.03,SSW,210,1.0,5.0,45,0.00,,,0.00,weatherlink.com 1.10,2013-06-09 21:57:00,
2013-06-09 18:12:00,80.4,57.0,30.04,NW,314,0.0,6.0,45,0.00,,,0.00,weatherlink.com 1.10,2013-06-09 22:12:00,
2013-06-09 18:27:00,79.4,57.0,30.04,ESE,107,0.0,6.0,47,0.00,,,0.00,weatherlink.com 1.10,2013-06-09 22:27:00,
2013-06-09 18:42:00,78.8,57.0,30.04,SSW,210,2.0,5.0,48,0.00,,,0.00,weatherlink.com 1.10,2013-06-09 22:42:00,
2013-06-09 18:57:00,78.0,59.0,30.05,WSW,253,1.0,5.0,52,0.00,,,0.00,weatherlink.com 1.10,2013-06-09 22:57:00,
2013-06-09 19:12:00,77.6,59.0,30.05,SW,218,1.0,2.0,53,0.00,,,0.00,weatherlink.com 1.10,2013-06-09 23:12:00,
2013-06-09 19:27:00,76.5,60.0,30.05,SE,139,0.0,1.0,57,0.00,,,0.00,weatherlink.com 1.10,2013-06-09 23:27:00,
2013-06-09 19:42:00,74.9,60.0,30.05,WSW,257,0.0,2.0,61,0.00,,,0.00,weatherlink.com 1.10,2013-06-09 23:42:00,
2013-06-09 19:57:00,74.0,61.0,30.05,SSE,152,0.0,4.0,63,0.00,,,0.00,weatherlink.com 1.10,2013-06-09 23:57:00,
2013-06-09 20:12:00,73.8,60.0,30.05,SSE,152,1.0,4.0,62,0.00,,,0.00,weatherlink.com 1.10,2013-06-10 00:12:00,
2013-06-09 20:27:00,73.6,60.0,30.05,WSW,245,1.0,3.0,63,0.00,,,0.00,weatherlink.com 1.10,2013-06-10 00:27:00,
2013-06-09 20:42:00,73.5,60.0,30.06,West,263,1.0,4.0,63,0.00,,,0.00,weatherlink.com 1.10,2013-06-10 00:42:00,
2013-06-09 20:57:00,73.2,60.0,30.06,South,170,0.0,0.0,64,0.00,,,0.00,weatherlink.com 1.10,2013-06-10 00:57:00,
2013-06-09 21:12:00,72.8,61.0,30.07,West,278,0.0,0.0,66,0.00,,,0.00,weatherlink.com 1.10,2013-06-10 01:12:00,
2013-06-09 21:27:00,72.2,61.0,30.07,West,280,0.0,0.0,68,0.00,,,0.00,weatherlink.com 1.10,2013-06-10 01:27:00,
2013-06-09 21:42:00,71.4,61.0,30.07,West,280,0.0,0.0,69,0.00,,,0.00,weatherlink.com 1.10,2013-06-10 01:42:00,
2013-06-09 21:57:00,70.9,61.0,30.08,West,280,0.0,0.0,71,0.00,,,0.00,weatherlink.com 1.10,2013-06-10 01:57:00,
2013-06-09 22:12:00,70.9,61.0,30.08,SW,231,0.0,0.0,71,0.00,,,0.00,weatherlink.com 1.10,2013-06-10 02:12:00,
2013-06-09 22:27:00,70.9,61.0,30.09,SSE,167,1.0,2.0,72,0.00,,,0.00,weatherlink.com 1.10,2013-06-10 02:27:00,
2013-06-09 22:42:00,70.6,62.0,30.08,SSW,207,0.0,1.0,73,0.00,,,0.00,weatherlink.com 1.10,2013-06-10 02:42:00,
2013-06-09 22:57:00,70.2,62.0,30.07,SSE,152,0.0,0.0,74,0.00,,,0.00,weatherlink.com 1.10,2013-06-10 02:57:00,
2013-06-09 23:12:00,70.0,62.0,30.07,WSW,250,0.0,1.0,75,0.00,,,0.00,weatherlink.com 1.10,2013-06-10 03:12:00,
2013-06-09 23:27:00,69.8,62.0,30.07,NNW,335,0.0,0.0,76,0.00,,,0.00,weatherlink.com 1.10,2013-06-10 03:27:00,
2013-06-09 23:42:00,69.6,62.0,30.07,South,184,0.0,3.0,77,0.00,,,0.00,weatherlink.com 1.10,2013-06-10 03:42:00,
2013-06-09 23:57:00,69.2,62.0,30.07,South,184,0.0,0.0,79,0.00,,,0.00,weatherlink.com 1.10,2013-06-10 03:57:00,